Appleton, WI

1:53 AM CST on December 11, 2019 (GMT -0600)
Outagamie County Regional

Weather History for KATW - August, 2019

Change the Weather History Date:

Wednesday, August 14, 2019

  Actual Average Record
Temperature  
Mean Temperature 64 °F -  
Max Temperature 69 °F 78 °F 95 °F (1965)
Min Temperature 59 °F 61 °F 44 °F (2013)
Degree Days  
Heating Degree Days 1    
Growing Degree Days 14 (Base 50)    
Moisture  
Dew Point 52 °F    
Average Humidity 67    
Maximum Humidity 88    
Minimum Humidity 46    
Precipitation  
Precipitation 0.00 in - - ()
Sea Level Pressure  
Sea Level Pressure 29.99 in    
Wind  
Wind Speed 8 mph (NE)    
Max Wind Speed 13 mph    
Max Gust Speed 17 mph    
Visibility 10 miles    
Events Rain    
Averages and records for this station are not official NWS values.
T = Trace of Precipitation, MM = Missing Value Source: NWS Daily Summary

Daily Weather History Graph

Daily Weather History Graph

Search for Another Location

Airport or City:

Astronomy

Aug. 14, 2019 Rise Set
Actual Time 5:56 AM CDT 8:00 PM CDT
Civil Twilight 5:24 AM CDT 8:32 PM CDT
Nautical Twilight 4:45 AM CDT 9:10 PM CDT
Astronomical Twilight 4:02 AM CDT 9:53 PM CDT
Moon 7:57 PM CDT (8/14) 4:49 AM CDT (8/14)
Length of Visible Light 15h 07m
Length of Day
14h 04m
Waxing Gibbous, 99% of the Moon is Illuminated
Aug 14
Waxing Gibbous
Aug 15
Full
Aug 23
Last Quarter
Aug 30
New
Sep 5
First Quarter

Hourly Weather History & Observations

Time (CDT) Temp. Dew Point Humidity Pressure Visibility Wind Dir Wind Speed Gust Speed Precip Events Conditions
12:15 AM 62.6 °F 51.8 °F 68% 29.98 in 10.0 mi North 6.9 mph - N/A   Overcast
12:35 AM 60.8 °F 51.8 °F 72% 29.98 in 10.0 mi NNE 5.8 mph - N/A   Overcast
12:55 AM 60.8 °F 51.8 °F 72% 29.97 in 10.0 mi NNE 8.1 mph - N/A   Overcast
1:15 AM 60.8 °F 51.8 °F 72% 29.96 in 10.0 mi NNE 6.9 mph - N/A   Overcast
1:35 AM 60.8 °F 51.8 °F 72% 29.96 in 10.0 mi NE 6.9 mph - N/A   Overcast
1:55 AM 60.8 °F 51.8 °F 72% 29.97 in 10.0 mi NE 6.9 mph - N/A   Overcast
2:15 AM 60.8 °F 51.8 °F 72% 29.96 in 10.0 mi NNE 8.1 mph - N/A   Overcast
2:35 AM 60.8 °F 51.8 °F 72% 29.96 in 10.0 mi NNE 9.2 mph - N/A   Overcast
2:55 AM 60.8 °F 51.8 °F 72% 29.96 in 10.0 mi NE 8.1 mph - N/A   Overcast
3:15 AM 60.8 °F 53.6 °F 77% 29.96 in 10.0 mi NE 9.2 mph - N/A   Overcast
3:35 AM 60.8 °F 53.6 °F 77% 29.94 in 10.0 mi NE 8.1 mph - N/A   Scattered Clouds
3:55 AM 60.8 °F 53.6 °F 77% 29.96 in 10.0 mi NNE 6.9 mph - N/A   Mostly Cloudy
4:15 AM 60.8 °F 53.6 °F 77% 29.95 in 10.0 mi NNE 6.9 mph - N/A   Overcast
4:35 AM 60.8 °F 53.6 °F 77% 29.96 in 10.0 mi NNE 9.2 mph - N/A   Overcast
4:55 AM 60.8 °F 53.6 °F 77% 29.97 in 10.0 mi NNE 9.2 mph - N/A   Overcast
5:15 AM 60.8 °F 53.6 °F 77% 29.98 in 10.0 mi North 9.2 mph - N/A Rain Light Rain
5:20 AM 60.8 °F 55.4 °F 82% 29.98 in 10.0 mi NNE 6.9 mph - N/A   Overcast
5:45 AM 60.8 °F 55.4 °F 82% 29.98 in 10.0 mi NNE 6.9 mph - N/A   Overcast
6:45 AM 60.8 °F 57.2 °F 88% 29.99 in 10.0 mi NNE 6.9 mph - N/A   Overcast
7:45 AM 62.6 °F 55.4 °F 77% 29.98 in 10.0 mi NNE 9.2 mph - N/A   Mostly Cloudy
8:45 AM 64.4 °F 53.6 °F 68% 29.98 in 10.0 mi NNE 12.7 mph - N/A   Mostly Cloudy
9:45 AM 66.2 °F 53.6 °F 64% 29.99 in 10.0 mi NE 11.5 mph - N/A   Mostly Cloudy
10:45 AM 69.8 °F 51.8 °F 53% 30.01 in 10.0 mi ENE 11.5 mph - N/A   Mostly Cloudy
11:45 AM 69.8 °F 51.8 °F 53% 30.00 in 10.0 mi ENE 11.5 mph 17.3 mph N/A   Mostly Cloudy
12:45 PM 69.8 °F 53.6 °F 56% 30.01 in 10.0 mi ENE 9.2 mph - N/A   Mostly Cloudy
1:45 PM 68.0 °F 53.6 °F 60% 30.01 in 10.0 mi ENE 10.4 mph - N/A   Mostly Cloudy
2:45 PM 69.8 °F 53.6 °F 56% 30.01 in 10.0 mi East 8.1 mph - N/A   Mostly Cloudy
3:45 PM 69.8 °F 53.6 °F 56% 30.01 in 10.0 mi NE 9.2 mph - N/A   Mostly Cloudy
4:45 PM 69.8 °F 51.8 °F 53% 30.01 in 10.0 mi NNE 11.5 mph - N/A   Mostly Cloudy
5:45 PM 69.8 °F 48.2 °F 46% 30.01 in 10.0 mi ENE 12.7 mph 16.1 mph N/A   Mostly Cloudy
6:45 PM 69.8 °F 48.2 °F 46% 30.00 in 10.0 mi ENE 9.2 mph - N/A   Mostly Cloudy
7:45 PM 64.4 °F 48.2 °F 56% 30.01 in 10.0 mi NNE 5.8 mph - N/A   Mostly Cloudy
8:45 PM 64.4 °F 48.2 °F 56% 30.02 in 10.0 mi Calm Calm - N/A   Mostly Cloudy
9:45 PM 64.4 °F 48.2 °F 56% 30.04 in 10.0 mi Calm Calm - N/A   Mostly Cloudy
10:45 PM 62.6 °F 48.2 °F 59% 30.04 in 10.0 mi Calm Calm - N/A   Mostly Cloudy
10:55 PM 60.8 °F 48.2 °F 63% 30.05 in 10.0 mi North 4.6 mph - N/A   Mostly Cloudy
11:15 PM 59.0 °F 48.2 °F 67% 30.04 in 10.0 mi NNE 3.5 mph - N/A   Scattered Clouds
11:35 PM 59.0 °F 48.2 °F 67% 30.04 in 10.0 mi NNE 3.5 mph - N/A   Clear
11:55 PM 59.0 °F 46.4 °F 63% 30.04 in 10.0 mi NE 3.5 mph - N/A   Clear